Wind_Speed
24 24 23 23 24 24 25 25 25 24 23 22 21 20 20 20 21 22 23 25 25 26 27 27 28 28 28 28 27 27 28 29 29 30 32 33 32 31 31 32 34 36
24 24 24 24 24 25 26 26 26 25 24 23 22 21 20 20 20 21 22 23 24 25 27 27 28 28 29 30 30 30 29 30 31 31 32 33 33 33 34 36 38 39
23 23 24 24 24 25 26 26 26 25 25 24 23 23 21 20 20 20 21 23 24 25 26 27 28 29 30 30 31 32 32 32 33 33 34 35 35 36 36 38 39 40
23 23 23 24 25 25 26 26 26 26 25 24 23 22 21 20 19 19 19 21 23 24 26 27 28 29 30 31 31 32 33 33 33 35 37 37 38 39 39 39 40 41
22 22 22 23 24 25 25 25 25 25 25 23 22 21 20 19 19 18 19 20 21 23 25 27 28 29 30 30 31 32 33 33 33 34 36 38 38 40 41 43 44 44
21 21 22 23 24 25 25 25 24 24 23 22 21 20 19 19 19 19 19 20 20 21 22 24 26 27 28 29 30 30 30 31 32 32 34 36 37 38 40 43 45 47
20 21 23 24 25 25 24 24 24 23 21 20 20 20 20 20 20 20 20 20 20 21 21 22 23 23 24 25 26 27 28 29 30 31 31 33 36 37 39 41 43 46
21 22 24 24 24 24 24 23 23 21 20 20 20 21 21 21 20 20 20 21 21 21 21 21 21 21 22 24 25 26 28 29 31 32 32 33 34 35 37 40 42 43
22 23 24 24 24 23 23 23 22 20 20 19 19 20 20 20 19 19 20 21 21 20 19 19 19 20 21 23 25 27 28 30 31 31 33 33 33 33 34 37 40 42
22 23 24 24 23 23 23 22 21 20 19 18 18 19 19 19 20 20 20 21 20 18 17 18 19 20 22 23 25 27 28 29 30 31 32 34 34 34 33 33 36 40
23 23 23 23 22 22 23 23 22 21 19 19 18 19 19 19 20 20 20 20 19 17 16 17 19 20 21 23 24 24 25 26 28 30 32 33 34 35 35 34 34 36
22 23 24 23 22 22 22 23 22 21 20 19 19 18 19 19 19 20 20 19 19 18 17 17 18 19 22 24 24 24 25 26 27 28 30 31 32 33 34 34 34 34
22 23 24 24 23 22 21 21 21 21 21 21 20 19 19 19 19 19 20 19 19 19 19 19 19 19 21 23 24 25 27 29 29 30 31 32 32 31 31 32 34 33
23 24 25 25 25 23 21 20 20 21 21 22 21 20 20 20 20 19 19 18 18 18 19 20 20 21 22 22 24 26 28 30 31 33 36 35 32 30 30 30 32 33
25 25 25 26 26 24 22 20 20 20 21 22 22 21 21 21 21 20 18 17 17 18 19 20 21 22 23 23 24 26 28 30 32 35 39 40 33 28 29 30 30 32
26 26 26 25 26 25 23 21 20 20 21 22 22 21 20 20 20 19 18 16 15 17 18 19 21 22 23 23 24 26 28 30 33 35 40 42 35 28 28 29 28 30
26 26 26 25 25 24 23 22 21 21 21 22 22 21 19 18 18 18 17 16 16 17 17 19 21 22 23 24 24 26 27 30 33 35 41 44 36 27 27 29 26 26
26 26 26 25 24 23 23 22 21 21 22 22 22 20 17 16 16 16 17 17 17 18 18 20 21 23 23 24 24 24 25 28 33 36 42 46 36 26 25 26 24 23
26 26 26 24 23 23 23 22 22 22 22 23 21 19 17 16 16 16 16 17 18 19 20 20 22 23 24 23 23 23 24 26 31 35 41 45 35 25 24 22 18 19
25 26 26 24 23 23 23 23 23 22 22 22 20 19 17 16 16 16 17 18 19 20 21 21 21 23 23 23 23 23 22 25 29 34 40 44 35 25 23 21 13 10
25 25 25 24 22 22 22 22 22 22 21 20 18 18 17 16 16 16 18 19 20 21 21 21 21 23 22 22 22 22 21 23 27 32 38 41 38 30 26 22 17 13
24 24 24 23 22 21 21 21 22 21 20 18 17 16 17 17 17 17 18 19 20 20 20 20 21 22 22 21 21 20 20 21 24 30 36 40 40 37 32 26 21 18
24 24 24 23 22 22 21 21 21 21 20 18 16 16 17 18 17 17 17 18 19 20 20 20 20 20 20 20 21 20 19 20 22 28 35 39 39 38 37 30 22 19
24 24 23 22 21 21 21 21 21 21 20 18 16 16 18 18 17 16 16 17 18 19 20 20 19 19 19 19 20 20 19 19 21 25 32 37 37 35 37 35 27 20
25 25 23 21 21 21 21 21 21 21 20 18 17 17 18 17 16 15 15 16 17 18 20 20 20 20 20 19 19 20 19 19 20 23 28 33 35 33 33 36 35 27
25 25 23 20 20 20 20 21 21 20 19 18 16 17 17 16 15 15 15 16 17 18 20 21 21 21 20 19 19 19 19 19 20 21 24 28 31 31 30 31 35 36
Wind_Direction
322 320 320 320 319 318 318 318 319 319 319 317 315 311 305 299 294 292 291 291 291 291 289 288 285 282 280 279 277 271 266 266 266 265 264 264 261 257 254 252 252 253
321 321 320 320 320 320 320 320 320 320 320 320 318 316 312 306 299 295 292 291 291 291 290 289 288 285 283 280 279 276 272 269 268 267 267 266 263 259 256 254 253 253
321 321 321 320 321 321 322 321 320 320 319 319 319 318 316 312 306 301 297 294 292 291 290 289 287 285 284 281 278 277 276 273 270 270 269 268 267 264 261 259 257 256
322 321 321 321 321 322 322 322 321 320 319 319 319 319 318 316 313 308 302 297 293 291 289 288 287 285 283 281 279 277 276 275 272 271 270 269 267 266 265 263 262 260
322 322 321 321 322 322 322 321 320 319 319 320 321 321 321 321 318 313 308 302 297 293 290 289 288 287 285 283 282 280 278 277 275 273 271 271 269 267 266 264 263 262
323 323 322 322 322 322 322 320 319 318 319 321 322 323 324 323 321 318 314 309 305 301 297 295 293 293 292 291 289 287 285 282 280 277 275 275 273 270 267 265 263 262
325 324 323 322 321 321 321 320 320 319 320 321 321 322 323 323 323 322 320 317 314 311 309 307 304 302 301 299 296 294 291 289 287 285 283 280 278 274 271 268 265 263
327 325 322 320 319 319 319 320 321 321 321 321 320 321 323 324 326 326 326 324 319 315 312 312 310 307 306 303 300 296 292 289 288 287 286 285 282 278 274 270 267 264
327 323 319 318 317 318 319 321 322 322 322 322 321 322 324 326 327 330 331 330 327 320 315 313 313 315 316 314 310 305 298 295 292 290 289 287 285 282 277 272 268 264
324 320 317 316 317 318 319 321 322 322 321 321 321 322 323 325 327 330 333 335 335 332 324 319 320 323 324 322 319 313 306 302 299 296 294 290 287 285 281 276 270 265
322 319 316 316 318 319 321 322 322 322 321 319 318 318 319 321 323 326 330 333 334 333 328 326 326 327 324 323 325 324 319 316 311 305 300 294 288 285 282 277 272 267
323 320 318 316 318 320 322 322 322 321 319 316 313 312 311 314 318 321 325 329 331 329 327 327 327 325 321 322 329 333 333 333 330 323 314 304 295 290 284 278 273 270
326 323 319 317 317 320 322 322 322 321 317 313 309 307 306 308 313 317 321 325 327 327 326 324 323 321 319 322 328 332 333 334 334 333 328 317 304 294 288 281 275 271
327 324 321 317 315 317 319 320 322 322 320 316 311 307 306 307 311 316 319 322 324 325 324 321 318 316 317 321 325 328 330 332 333 333 333 328 313 296 287 282 277 272
328 326 322 316 313 312 313 314 317 320 321 319 315 311 308 308 311 314 318 320 321 323 322 319 316 314 315 318 321 323 327 332 333 332 334 334 324 304 289 281 276 273
329 327 322 317 311 309 308 309 311 314 318 318 316 314 311 309 310 312 316 317 319 321 321 318 316 313 313 316 318 321 326 331 332 331 335 335 328 314 299 287 276 271
330 327 322 317 312 308 307 307 308 311 314 315 314 314 311 308 307 310 313 313 316 319 318 316 314 311 312 314 315 320 326 330 330 331 336 336 329 319 309 296 282 273
330 327 323 319 314 312 310 309 309 311 312 313 313 311 309 305 305 308 311 310 313 316 315 314 311 309 310 312 314 322 328 330 329 331 337 338 332 325 322 308 288 274
331 328 324 320 315 312 311 312 313 314 313 314 313 310 307 305 304 307 309 309 311 315 316 315 310 307 309 311 314 323 330 330 329 331 338 341 334 331 341 334 300 275
332 328 324 319 313 311 311 315 318 318 317 316 315 313 311 310 309 309 310 310 311 313 314 315 311 308 309 312 315 324 331 331 330 332 339 344 341 335 347 354 337 297
331 328 322 317 313 313 316 320 322 320 319 319 319 319 319 318 318 315 314 313 312 314 316 317 315 311 312 313 315 324 332 332 332 335 339 346 351 347 344 347 346 343
329 327 322 316 315 318 323 326 323 320 321 322 324 326 326 327 327 324 320 318 318 320 322 322 320 316 316 317 317 324 333 332 334 338 340 347 356 355 348 342 333 331
327 326 322 317 317 321 325 326 323 321 322 324 327 331 332 332 333 331 329 329 328 328 327 326 325 322 322 324 321 325 332 332 334 339 342 350 356 355 354 350 334 322
325 325 321 318 317 320 324 325 323 322 323 326 331 335 335 335 336 338 339 338 336 334 331 330 329 328 331 334 330 328 329 331 334 337 343 351 356 354 356 359 352 334
322 322 320 316 315 318 321 323 324 324 325 329 336 338 336 335 336 339 341 340 338 337 337 336 333 330 334 339 338 335 331 328 331 334 340 350 354 353 357 1 2 358
318 319 317 313 312 315 318 321 322 323 325 330 337 337 333 333 336 338 341 341 340 339 339 339 336 331 333 337 340 341 339 332 329 330 336 344 348 353 359 0 1 6
Height
3169 3167 3165 3164 3162 3161 3159 3158 3156 3154 3152 3150 3148 3147 3146 3145 3144 3143 3142 3141 3139 3138 3138 3137 3136 3135 3135 3134 3134 3134 3134 3134 3135 3135 3134 3134 3136 3137 3138 3139 3140 3141
3167 3165 3163 3161 3160 3158 3157 3155 3153 3151 3150 3148 3146 3144 3143 3142 3141 3140 3139 3138 3137 3136 3135 3134 3133 3132 3131 3131 3130 3130 3131 3131 3131 3131 3131 3131 3131 3132 3133 3134 3135 3135
3164 3162 3161 3159 3158 3156 3154 3152 3150 3149 3147 3145 3144 3142 3141 3140 3139 3138 3137 3136 3135 3134 3132 3131 3129 3128 3127 3127 3126 3126 3126 3127 3127 3127 3127 3127 3127 3127 3128 3129 3129 3129
3162 3160 3158 3156 3155 3153 3151 3149 3148 3146 3144 3143 3142 3140 3139 3138 3136 3135 3134 3133 3132 3131 3130 3128 3126 3125 3124 3123 3123 3122 3122 3122 3122 3123 3122 3122 3122 3121 3122 3123 3122 3123
3160 3158 3156 3154 3153 3151 3149 3147 3145 3144 3142 3141 3139 3138 3137 3135 3134 3133 3132 3131 3129 3128 3127 3125 3124 3122 3121 3120 3119 3118 3118 3118 3118 3118 3117 3116 3116 3116 3116 3116 3116 3117
3158 3156 3154 3152 3151 3149 3148 3146 3144 3142 3140 3139 3137 3136 3135 3133 3132 3130 3129 3128 3127 3125 3124 3122 3120 3119 3118 3117 3116 3115 3114 3114 3113 3113 3113 3112 3111 3111 3110 3110 3109 3110
3156 3154 3152 3150 3149 3147 3146 3144 3142 3140 3138 3137 3135 3134 3132 3131 3129 3128 3126 3125 3123 3122 3121 3119 3118 3116 3115 3114 3113 3112 3111 3110 3109 3108 3108 3107 3106 3105 3105 3104 3103 3103
3154 3152 3150 3149 3147 3146 3144 3142 3140 3138 3136 3135 3133 3131 3130 3129 3127 3126 3124 3122 3121 3119 3118 3117 3116 3114 3113 3111 3109 3108 3107 3106 3104 3103 3102 3102 3100 3100 3099 3098 3097 3096
3152 3150 3148 3147 3145 3144 3142 3140 3138 3136 3134 3133 3131 3130 3128 3126 3125 3124 3122 3120 3118 3116 3115 3114 3113 3112 3110 3108 3106 3104 3103 3101 3100 3098 3097 3096 3095 3094 3093 3092 3090 3090
3150 3148 3146 3145 3143 3142 3140 3137 3135 3133 3132 3131 3129 3128 3126 3125 3123 3122 3120 3118 3116 3114 3113 3112 3111 3109 3107 3105 3103 3101 3099 3097 3095 3094 3092 3090 3089 3088 3087 3086 3084 3083
3148 3146 3144 3143 3141 3139 3137 3135 3133 3131 3130 3128 3127 3126 3124 3123 3121 3120 3118 3117 3115 3113 3111 3110 3108 3107 3105 3103 3101 3098 3096 3094 3092 3090 3087 3085 3083 3082 3080 3079 3078 3077
3146 3144 3142 3141 3139 3137 3135 3133 3131 3129 3128 3126 3125 3124 3122 3121 3120 3118 3117 3115 3113 3111 3109 3107 3106 3104 3103 3101 3098 3096 3094 3092 3089 3086 3083 3081 3078 3076 3075 3073 3072 3072
3144 3142 3140 3138 3137 3135 3133 3132 3129 3128 3126 3124 3123 3122 3120 3119 3118 3116 3115 3113 3111 3109 3107 3105 3104 3102 3100 3098 3096 3094 3091 3089 3086 3083 3080 3077 3074 3071 3069 3068 3067 3067
3141 3140 3138 3136 3134 3133 3131 3130 3128 3126 3124 3123 3121 3120 3118 3117 3116 3114 3113 3111 3109 3107 3105 3103 3101 3099 3098 3096 3093 3091 3088 3086 3083 3079 3076 3072 3069 3066 3064 3063 3062 3062
3139 3137 3135 3134 3132 3131 3129 3128 3126 3124 3122 3121 3119 3117 3116 3115 3113 3112 3110 3109 3107 3105 3103 3101 3099 3097 3095 3093 3090 3088 3085 3082 3079 3076 3072 3067 3063 3061 3059 3058 3057 3057
3136 3134 3133 3131 3130 3128 3127 3125 3124 3122 3120 3119 3117 3115 3114 3112 3111 3109 3108 3107 3105 3103 3101 3099 3096 3094 3092 3090 3087 3085 3082 3079 3076 3073 3069 3064 3059 3056 3054 3052 3052 3051
3134 3132 3131 3129 3127 3126 3124 3123 3121 3119 3118 3116 3115 3113 3112 3110 3108 3107 3105 3104 3102 3101 3099 3096 3094 3092 3089 3087 3085 3082 3080 3076 3073 3069 3065 3060 3055 3052 3049 3047 3047 3047
3132 3130 3128 3127 3125 3123 3122 3120 3119 3117 3115 3114 3112 3111 3109 3108 3106 3105 3103 3101 3100 3098 3096 3094 3092 3089 3087 3085 3083 3081 3078 3074 3070 3066 3062 3057 3052 3049 3046 3043 3042 3042
3129 3127 3126 3124 3123 3121 3119 3118 3116 3115 3113 3112 3110 3108 3107 3105 3104 3102 3101 3099 3097 3096 3094 3092 3089 3086 3084 3082 3080 3078 3076 3073 3069 3064 3060 3055 3050 3046 3043 3040 3039 3038
3127 3125 3124 3122 3121 3119 3117 3116 3114 3112 3111 3109 3108 3106 3105 3103 3102 3101 3099 3097 3095 3093 3091 3089 3087 3084 3082 3080 3078 3076 3073 3071 3067 3063 3059 3054 3048 3044 3041 3039 3036 3035
3125 3123 3122 3120 3119 3117 3116 3114 3112 3110 3109 3107 3105 3104 3102 3101 3100 3098 3097 3095 3093 3091 3088 3087 3084 3082 3080 3078 3076 3074 3071 3069 3066 3062 3058 3053 3048 3044 3040 3038 3035 3033
3123 3122 3120 3118 3117 3115 3113 3112 3110 3108 3107 3105 3104 3102 3100 3099 3098 3096 3094 3093 3090 3088 3086 3084 3082 3080 3078 3076 3074 3072 3069 3067 3064 3060 3057 3053 3048 3044 3040 3036 3034 3032
3121 3120 3118 3116 3114 3113 3111 3110 3108 3106 3105 3103 3102 3100 3099 3097 3096 3094 3092 3091 3088 3086 3084 3082 3080 3078 3076 3074 3072 3070 3068 3066 3063 3059 3056 3052 3048 3044 3040 3035 3032 3030
3119 3117 3116 3114 3112 3111 3109 3108 3106 3104 3103 3101 3100 3098 3097 3095 3094 3093 3091 3089 3087 3084 3082 3080 3078 3076 3074 3072 3070 3068 3066 3064 3062 3058 3055 3051 3048 3045 3040 3035 3031 3028
3116 3115 3113 3112 3110 3109 3107 3106 3104 3103 3101 3100 3098 3097 3095 3094 3092 3091 3089 3087 3085 3083 3081 3079 3077 3075 3072 3070 3068 3066 3064 3062 3060 3058 3054 3051 3048 3045 3041 3036 3032 3028
3114 3112 3111 3110 3108 3107 3105 3104 3102 3101 3099 3098 3097 3095 3093 3092 3090 3089 3087 3085 3083 3081 3079 3077 3075 3073 3071 3069 3067 3064 3062 3060 3058 3056 3054 3051 3048 3045 3042 3037 3033 3028